LEMUR-2-NATALIEMURRAY (43887 NORAD) Tracking and Keplerian Element Data

This shows tracking and keplerian element data for the satellite.

Feedback or suggestion? Click here.




ElementValue
Catalog43887
NameLEMUR-2-NATALIEMURRAY
Epoch Orbit295
Epoch Day15.93637701
Epoch Year2019
RAAN286.1255
Inclination97.7289
Eccentricity0.0011476
Argument of Perigee169.8971
Mean Anonmoly190.2484
Mean Motion14.96628479
Decay Rate4.5E-06
L11 43887U 18111M 19015.93637701 .00000450 00000-0 44587-4 0 9995
L22 43887 97.7289 286.1255 0011476 169.8971 190.2484 14.96628479 2953

Live tracking and technical data element details for LEMUR-2-NATALIEMURRAY (NORAD 43887). LEMUR-2-NATALIEMURRAY can be tracked NOW for your location showing map with azimuth and elevation plus other details from your city location.

Track the satellite on the map from your city or location and see movement details for azimuth, elevation, latitude, longitude, range, height, and movement on the map or in text.







IsCatalogInMostPopularTable: catalog: 43887, numindb: 14
Update: records affected: 1



GetName: 43887 LEMUR-2-NATALIEMURRAY

Hit Count: updated at: Thu, 17 Jan 2019 15:26:55 GMT